Bedford, MA

10:06 AM EDT on September 19, 2017 (GMT -0400)
Hanscom

Weather History for KBED - November, 2012

Change the Weather History Date:

Monday, November 5, 2012

  Actual Average Record
Temperature  
Mean Temperature 36 °F -  
Max Temperature 44 °F 54 °F 76 °F (1961)
Min Temperature 27 °F 35 °F 21 °F (2013)
Degree Days  
Heating Degree Days 29    
Moisture  
Dew Point 22 °F    
Average Humidity 56    
Maximum Humidity 69    
Minimum Humidity 40    
Precipitation  
Precipitation 0.00 in - - ()
Sea Level Pressure  
Sea Level Pressure 30.06 in    
Wind  
Wind Speed 8 mph (NW)    
Max Wind Speed 12 mph    
Max Gust Speed 20 mph    
Visibility 10 miles    
Events      
Averages and records for this station are not official NWS values.
T = Trace of Precipitation, MM = Missing Value Source: NWS Daily Summary

Daily Weather History Graph

Daily Weather History Graph

Search for Another Location

Airport or City:

Trip Planner

Search our weather history database for the weather conditions in past years. The results will help you decide how hot, cold, wet, or windy it might be!

Date:

Astronomy

Nov. 05, 2012 Rise Set
Actual Time 6:24 AM EST 4:32 PM EST
Civil Twilight 5:54 AM EST 5:02 PM EST
Nautical Twilight 5:21 AM EST 5:35 PM EST
Astronomical Twilight 4:48 AM EST 6:08 PM EST
Moon 10:07 PM EST (11/5) 11:42 AM EST (11/5)
Length of Visible Light 11h 07m
Length of Day
10h 08m
Waning Gibbous, 63% of the Moon is Illuminated
Nov 5
Waning Gibbous
Nov 6
Last Quarter
Nov 13
New
Nov 20
First Quarter
Nov 28
Full

Hourly Weather History & Observations

Time (EST) Temp. Windchill Dew Point Humidity Pressure Visibility Wind Dir Wind Speed Gust Speed Precip Events Conditions
12:56 AM 37.0 °F 30.4 °F 27.0 °F 67% 30.00 in 10.0 mi WNW 9.2 mph - N/A   Overcast
1:56 AM 37.0 °F 31.6 °F 26.1 °F 65% 29.99 in 10.0 mi NW 6.9 mph - N/A   Overcast
2:56 AM 37.0 °F 31.0 °F 26.1 °F 65% 30.00 in 10.0 mi WNW 8.1 mph - N/A   Overcast
3:56 AM 37.0 °F 31.6 °F 25.0 °F 62% 29.99 in 10.0 mi NW 6.9 mph - N/A   Overcast
4:56 AM 37.0 °F 31.6 °F 24.1 °F 59% 30.00 in 10.0 mi NNW 6.9 mph - N/A   Overcast
5:56 AM 35.6 °F 29.9 °F 23.0 °F 60% 29.96 in 10.0 mi NNW 6.9 mph - N/A   Overcast
6:56 AM 36.0 °F 30.3 °F 23.0 °F 59% 30.03 in 10.0 mi NW 6.9 mph - N/A   Overcast
7:56 AM 37.0 °F 31.0 °F 23.0 °F 57% 30.05 in 10.0 mi NNW 8.1 mph - N/A   Overcast
8:56 AM 37.9 °F 30.9 °F 21.9 °F 53% 30.05 in 10.0 mi NNW 10.4 mph 19.6 mph N/A   Overcast
9:56 AM 39.0 °F 33.4 °F 21.0 °F 49% 30.04 in 10.0 mi NNW 8.1 mph - N/A   Overcast
10:56 AM 42.1 °F 37.1 °F 21.0 °F 43% 30.03 in 10.0 mi North 8.1 mph - N/A   Mostly Cloudy
11:56 AM 43.0 °F 37.2 °F 21.0 °F 42% 30.01 in 10.0 mi NW 10.4 mph 19.6 mph N/A   Clear
12:56 PM 44.1 °F 38.1 °F 21.0 °F 40% 30.01 in 10.0 mi North 11.5 mph 19.6 mph N/A   Scattered Clouds
1:56 PM 42.1 °F 35.7 °F 21.0 °F 43% 30.00 in 10.0 mi NW 11.5 mph 18.4 mph N/A   Scattered Clouds
2:56 PM 43.0 °F 37.7 °F 21.0 °F 42% 30.03 in 10.0 mi NW 9.2 mph 17.3 mph N/A   Partly Cloudy
3:56 PM 39.9 °F 33.4 °F 19.9 °F 45% 30.05 in 10.0 mi NW 10.4 mph - N/A   Overcast
4:56 PM 37.9 °F 31.5 °F 19.9 °F 48% 30.07 in 10.0 mi North 9.2 mph - N/A   Overcast
5:56 PM 36.0 °F 30.3 °F 21.0 °F 55% 30.11 in 10.0 mi North 6.9 mph - N/A   Mostly Cloudy
6:56 PM 34.0 °F 28.8 °F 19.9 °F 56% 30.12 in 10.0 mi NNW 5.8 mph - N/A   Mostly Cloudy
7:56 PM 32.0 °F 27.5 °F 19.0 °F 59% 30.15 in 10.0 mi NW 4.6 mph - N/A   Clear
8:56 PM 30.0 °F 24.1 °F 19.0 °F 64% 30.16 in 10.0 mi WNW 5.8 mph - N/A   Clear
9:56 PM 28.0 °F 21.7 °F 19.0 °F 69% 30.17 in 10.0 mi WNW 5.8 mph - N/A   Clear
10:56 PM 28.0 °F 21.7 °F 17.1 °F 63% 30.17 in 10.0 mi NW 5.8 mph - N/A   Clear
11:56 PM 27.0 °F 23.0 °F 18.0 °F 69% 30.17 in 10.0 mi West 3.5 mph - N/A   Clear